Jennings, LA

11:41 AM CDT on July 27, 2016 (GMT -0500)
Jennings

Weather History for K3R7 - January, 2013

Change the Weather History Date:

Thursday, January 17, 2013

  Actual Average (KLCH) Record (KLCH)
Temperature  
Mean Temperature 44 °F 52 °F  
Max Temperature 56 °F 61 °F 80 °F (1911)
Min Temperature 32 °F 42 °F 20 °F (1982)
Degree Days  
Heating Degree Days 21 14  
Month to date heating degree days 238  
Since 1 July heating degree days 812  
Cooling Degree Days 0 0  
Month to date cooling degree days 0  
Year to date cooling degree days 0  
Moisture  
Dew Point 33 °F    
Average Humidity 71    
Maximum Humidity 95    
Minimum Humidity 42    
Precipitation  
Precipitation 0.00 in 0.18 in 2.85 in (1987)
Month to date precipitation 2.98  
Year to date precipitation 2.98  
Snow  
Snow 0.00 in 0.00 in T in (1964)
Month to date snowfall 0.0  
Since 1 July snowfall T  
Snow Depth -    
Sea Level Pressure  
Sea Level Pressure 30.34 in    
Wind  
Wind Speed 6 mph (NW)    
Max Wind Speed 14 mph    
Max Gust Speed 17 mph    
Visibility 10 miles    
Events      
T = Trace of Precipitation, MM = Missing Value Source: NWS Daily Summary

Daily Weather History Graph

Daily Weather History Graph

Search for Another Location

Airport or City:

Trip Planner

Search our weather history database for the weather conditions in past years. The results will help you decide how hot, cold, wet, or windy it might be!

Date:

Astronomy

Jan. 17, 2013 Rise Set
Actual Time 7:07 AM CST 5:34 PM CST
Civil Twilight 6:41 AM CST 6:00 PM CST
Nautical Twilight 6:12 AM CST 6:29 PM CST
Astronomical Twilight 5:43 AM CST 6:58 PM CST
Moon 10:45 AM CST (1/17) 11:52 PM CST (1/17)
Length of Visible Light 11h 18m
Length of Day
10h 27m
Waxing Crescent, 38% of the Moon is Illuminated
Jan 17
Waxing Crescent
Jan 18
First Quarter
Jan 26
Full
Feb 3
Last Quarter
Feb 10
New

Hourly Weather History & Observations

Time (CST) Temp. Windchill Dew Point Humidity Pressure Visibility Wind Dir Wind Speed Gust Speed Precip Events Conditions
12:15 AM 35.8 °F 33.0 °F 34.2 °F 94% 30.23 in 10.0 mi West 3.5 mph - N/A   Clear
12:35 AM 35.2 °F 32.4 °F 34.0 °F 95% 30.23 in 10.0 mi West 3.5 mph - N/A   Clear
12:55 AM 34.3 °F - 32.9 °F 94% 30.23 in 10.0 mi Calm Calm - N/A   Clear
1:15 AM 34.2 °F 29.0 °F 32.5 °F 94% 30.24 in 10.0 mi West 5.8 mph - N/A   Clear
1:35 AM 35.1 °F 28.6 °F 32.4 °F 90% 30.25 in 10.0 mi West 8.1 mph - N/A   Clear
2:15 AM 35.1 °F 29.3 °F 31.8 °F 88% 30.25 in 10.0 mi WNW 6.9 mph - N/A   Clear
2:35 AM 35.6 °F 27.1 °F 31.1 °F 84% 30.26 in 10.0 mi WNW 12.7 mph - N/A   Clear
2:55 AM 35.2 °F 29.5 °F 31.1 °F 85% 30.25 in 10.0 mi WNW 6.9 mph - N/A   Clear
3:35 AM 34.2 °F 30.0 °F 30.9 °F 88% 30.26 in 10.0 mi NW 4.6 mph - N/A   Clear
3:55 AM 33.4 °F 29.1 °F 30.6 °F 89% 30.27 in 10.0 mi WNW 4.6 mph - N/A   Clear
4:15 AM 33.1 °F 30.0 °F 30.2 °F 89% 30.27 in 10.0 mi West 3.5 mph - N/A   Clear
4:35 AM 32.4 °F 27.9 °F 29.5 °F 89% 30.27 in 10.0 mi WNW 4.6 mph - N/A   Clear
4:55 AM 32.0 °F 27.5 °F 29.5 °F 90% 30.28 in 10.0 mi West 4.6 mph - N/A   Clear
5:15 AM 32.0 °F 26.4 °F 29.7 °F 91% 30.29 in 10.0 mi West 5.8 mph - N/A   Clear
5:35 AM 32.0 °F 27.5 °F 29.3 °F 90% 30.28 in 10.0 mi West 4.6 mph - N/A   Clear
6:15 AM 32.0 °F 28.7 °F 29.3 °F 90% 30.29 in 10.0 mi West 3.5 mph - N/A   Clear
6:35 AM 32.2 °F 25.0 °F 28.9 °F 88% 30.30 in 10.0 mi WNW 8.1 mph - N/A   Clear
6:55 AM 32.5 °F 27.1 °F 29.1 °F 87% 30.31 in 10.0 mi WNW 5.8 mph - N/A   Clear
7:15 AM 32.4 °F 24.6 °F 29.3 °F 88% 30.33 in 10.0 mi West 9.2 mph - N/A   Clear
7:35 AM 33.1 °F 26.1 °F 29.3 °F 86% 30.33 in 10.0 mi WNW 8.1 mph - N/A   Clear
7:55 AM 34.2 °F 26.8 °F 29.5 °F 83% 30.34 in 10.0 mi WNW 9.2 mph - N/A   Clear
8:15 AM 34.9 °F 27.1 °F 30.0 °F 82% 30.35 in 10.0 mi WNW 10.4 mph - N/A   Clear
8:35 AM 36.3 °F 30.1 °F 30.9 °F 81% 30.36 in 10.0 mi WNW 8.1 mph - N/A   Clear
8:55 AM 37.6 °F 31.6 °F 31.6 °F 79% 30.36 in 10.0 mi NW 8.1 mph - N/A   Clear
9:15 AM 39.4 °F 33.2 °F 32.0 °F 75% 30.37 in 10.0 mi WNW 9.2 mph - N/A   Clear
9:35 AM 40.8 °F 34.1 °F 32.4 °F 72% 30.38 in 10.0 mi NW 11.5 mph - N/A   Clear
9:55 AM 42.1 °F 37.1 °F 33.1 °F 70% 30.39 in 10.0 mi WNW 8.1 mph - N/A   Clear
10:15 AM 44.1 °F 39.5 °F 32.9 °F 65% 30.39 in 10.0 mi NW 8.1 mph - N/A   Clear
10:35 AM 45.5 °F 40.3 °F 33.3 °F 62% 30.38 in 10.0 mi NW 10.4 mph - N/A   Clear
10:55 AM 46.4 °F 41.5 °F 32.2 °F 58% 30.38 in 10.0 mi WNW 10.4 mph - N/A   Clear
11:15 AM 48.0 °F - 32.4 °F 55% 30.37 in 10.0 mi NW 9.2 mph - N/A   Clear
11:35 AM 49.1 °F - 31.1 °F 50% 30.36 in 10.0 mi NW 8.1 mph - N/A   Clear
11:55 AM 50.4 °F - 30.6 °F 47% 30.35 in 10.0 mi NNW 11.5 mph 17.3 mph N/A   Clear
12:15 PM 51.1 °F - 29.1 °F 43% 30.34 in 10.0 mi NNW 10.4 mph 17.3 mph N/A   Clear
12:35 PM 51.8 °F - 30.4 °F 44% 30.33 in 10.0 mi NNW 9.2 mph - N/A   Clear
12:55 PM 52.2 °F - 30.7 °F 44% 30.33 in 10.0 mi NW 10.4 mph - N/A   Clear
1:15 PM 52.7 °F - 30.9 °F 43% 30.32 in 10.0 mi NNW 10.4 mph - N/A   Clear
1:35 PM 53.6 °F - 31.6 °F 43% 30.31 in 10.0 mi WNW 6.9 mph - N/A   Clear
1:55 PM 54.1 °F - 31.8 °F 43% 30.31 in 10.0 mi NNW 11.5 mph - N/A   Clear
2:15 PM 54.5 °F - 31.6 °F 42% 30.30 in 10.0 mi NNW 10.4 mph - N/A   Clear
2:35 PM 54.9 °F - 32.5 °F 43% 30.30 in 10.0 mi NNW 13.8 mph - N/A   Clear
2:55 PM 55.4 °F - 33.4 °F 43% 30.30 in 10.0 mi NW 10.4 mph - N/A   Clear
3:15 PM 55.8 °F - 33.8 °F 44% 30.30 in 10.0 mi NNW 10.4 mph - N/A   Clear
3:35 PM 55.9 °F - 35.4 °F 46% 30.31 in 10.0 mi NNW 8.1 mph - N/A   Clear
3:55 PM 56.1 °F - 35.4 °F 46% 30.31 in 10.0 mi NNW 8.1 mph - N/A   Clear
4:55 PM 55.4 °F - 37.6 °F 51% 30.34 in 10.0 mi NNW 5.8 mph - N/A   Clear
5:35 PM 52.7 °F - 39.6 °F 61% 30.36 in 10.0 mi NNW 4.6 mph - N/A   Clear
6:35 PM 49.5 °F - 37.9 °F 65% 30.39 in 10.0 mi NNE 3.5 mph - N/A   Clear
7:15 PM 49.3 °F - 35.2 °F 58% 30.41 in 10.0 mi NNE 3.5 mph - N/A   Clear
7:55 PM 47.7 °F - 34.7 °F 61% 30.42 in 10.0 mi Calm Calm - N/A   Clear
8:15 PM 46.9 °F - 35.2 °F 64% 30.43 in 10.0 mi Calm Calm - N/A   Clear
8:55 PM 43.9 °F - 35.8 °F 73% 30.44 in 10.0 mi Calm Calm - N/A   Clear
9:15 PM 43.2 °F - 36.3 °F 77% 30.45 in 10.0 mi Calm Calm - N/A   Clear
9:35 PM 41.7 °F - 36.5 °F 82% 30.45 in 10.0 mi Calm Calm - N/A   Clear
9:55 PM 40.6 °F - 37.6 °F 89% 30.46 in 10.0 mi Calm Calm - N/A   Clear
11:15 PM 39.9 °F - 35.6 °F 85% 30.46 in 10.0 mi Calm Calm - N/A   Clear
11:35 PM 40.5 °F - 36.0 °F 84% 30.46 in 10.0 mi Calm Calm - N/A   Clear
11:55 PM 40.3 °F - 35.8 °F 84% 30.46 in 10.0 mi Calm Calm - N/A   Clear